Location: Bannatyne
(13.0833°N, 59.5333°W)
Time: 14:22:41
(UTC+00:00)

Transit 4A - Pass Details

Date: 17 January 2021
Orbit: 866 x 978 km, 66.8° (Epoch: 05 March)

Event Time Altitude Azimuth Distance (km) Brightness Sun altitude
Rises 23:22:28 0° 203° (SSW) 3,611 11.6 -21.6°
Reaches altitude 10° 23:24:59 10° 204° (SSW) 2,679 10.8 -22.2°
Maximum altitude 23:31:16 80° 290° (WNW) 985 8.0 -23.7°
Enters shadow 23:34:38 30° 14° (NNE) 1,664 8.9 -24.5°
